默认 日期 大小 文件数 浏览量 最新下载 xml
dazzle磁力链接相关资源由用户搜索指令自动获取,结果来源于网络,本站不存储任何资料,亦不承担任何责任,请于24小时内删除,搜索到242个磁力,用时0ms。
    ... .03.08.mary.jean.bae.dazzle.mp4": 3150304905, "roundandbrown.19.03 ... .08.mary.jean.bae.dazzle.nfo": 651}
创建时间: 2020-03-04 09:53:59 大小:2.98 GB 文件数量:13 热度:21 最近下载:2025-08-05 16:53:08
    {"Covers": {"cover01.jpg": 525968, "cover02.jpg": 985218, "cover03.jpg": 817223, "cover04.jpg": 868614, "cover05.jpg": 882905, "cover06.jpg": 738658, "cover07.jpg": 788390, "cover08.jpg": 1105089, "cover09.jpg": 152658, "cover10.jpg": 316517, "cover11.jpg ...
创建时间: 2020-03-06 02:41:48 大小:460.55 MB 文件数量:20 热度:3 最近下载:2023-12-26 21:55:02
    ... - Decadence.flac": 27041724, "DJ Dazzle - Soundbox CD1.cue": 2178, ... flac": 49836482, "Various - DJ Dazzle - Soundbox CD1.log": 11702, ... Q-Lock - Seconds (DJ Dazzle & Geert Huinink Remix).flac": ... flac": 46430967, "Various - DJ Dazzle - Soundbox CD2.log": 13486, ...
创建时间: 2020-04-01 10:23:31 大小:917.83 MB 文件数量:34 热度:4 最近下载:2025-08-18 03:52:01
    ... }, "Front-l.jpg": 864632, "Slow Dazzle.txt": 414, "John Cale - Slow ... Dazzle.ape": 190810272, "John Cale - Slow Dazzle.cue": 1347, "John Cale - Slow Dazzle ... .log": 2668, "Tau - John Cale - Slow Dazzle.jpg": 263378}
创建时间: 2020-04-11 03:26:54 大小:210.44 MB 文件数量:11 热度:2 最近下载:2023-12-30 12:43:04
    {"RARBG.com.txt": 34, "s.11.03.16.sdcb.xxx-failed.mp4": 58620673, "s.11.03.16.sdcb.xxx-failed.nfo": 1653}
创建时间: 2020-04-19 15:35:03 大小:55.91 MB 文件数量:3 热度:4 最近下载:2023-12-31 10:47:06
    {"free audiobook version.txt": 1015, "Dazzle Patterns by Alison Watt.epub": 2463806}
创建时间: 2020-05-09 20:59:24 大小:2.35 MB 文件数量:2 热度:3 最近下载:2022-04-08 05:53:16
    {"00_03_47.jpg": 42633, "ktr.atkh.11.11.06.dazzle.hairy.play.mp4": 537188045, "ktr.atkh.11.11.06.dazzle.hairy.play.nfo": 6978, "ktr.atkh.11.11.06.dazzle.hairy.play.mp4.jpg": 692383}
创建时间: 2020-05-19 20:07:47 大小:513.01 MB 文件数量:4 热度:4 最近下载:2024-06-18 06:08:01
    {"ShaRizel_Bikini Dazzle.mp4": 295635197}
创建时间: 2020-05-28 20:49:19 大小:281.94 MB 文件数量:1 热度:1 最近下载:2021-06-17 16:25:58
    {"free audiobook version.txt": 1015, "Dazzle Patterns by Alison Watt.epub": 2463806}
创建时间: 2020-05-31 21:17:52 大小:2.35 MB 文件数量:2 热度:2 最近下载:2021-06-17 16:25:58
    ... 03.30.sha.rizel.bikini.dazzle.r00": 15000000, "shd. ... 03.30.sha.rizel.bikini.dazzle.r01": 15000000, "shd. ... 03.30.sha.rizel.bikini.dazzle.r02": 15000000, "shd. ... 03.30.sha.rizel.bikini.dazzle.r03": 15000000, "shd. ... 03.30.sha.rizel.bikini.dazzle.r04": 15000000, "shd. ...
创建时间: 2020-07-16 03:14:32 大小:304.86 MB 文件数量:24 热度:5 最近下载:2024-08-10 19:56:02
    ... , "RARBG.COM_XXX_BANNER.jpg": 517081, "_metart-dazzle-me-cover.jpg": 100291, "metart ... -dazzle-me-cover-clean.jpg": 74868, " ...
创建时间: 2020-08-04 17:52:34 大小:447.67 MB 文件数量:126 热度:8 最近下载:2023-12-25 19:04:04
    ... , "RARBG.COM_XXX_BANNER.jpg": 517081, "_metart-dazzle-me-cover.jpg": 100291, "metart ... -dazzle-me-cover-clean.jpg": 74868, " ...
创建时间: 2020-08-05 05:32:10 大小:447.67 MB 文件数量:127 热度:13 最近下载:2025-04-02 00:51:02
    {"back.jpg": 508654, "front.jpg": 335052, "03. All.mp3": 14520320, "05. Reaching.mp3": 16601088, "06. Slipped Disco.mp3": 14700544, "04. You Dazzle Me!!!.mp3": 15167488, "02. It's Not The Same.mp3": 13332480, "01. Walk Before You Run.mp3": 17907712}
创建时间: 2020-08-19 21:11:40 大小:88.76 MB 文件数量:8 热度:2 最近下载:2023-12-27 21:21:02
    {"VIDEO_TS": {"VIDEO_TS.BUP": 8192, "VIDEO_TS.IFO": 8192, "VTS_01_0.BUP": 43008, "VTS_01_0.IFO": 43008, "VTS_01_0.VOB": 13631488, "VTS_01_1.VOB": 1073739776, "VTS_01_2.VOB": 1073739776, "VTS_01_3.VOB": 1035958272}}
创建时间: 2020-08-28 05:50:11 大小:2.98 GB 文件数量:8 热度:7 最近下载:2025-08-05 11:49:03
    ... Wear.mp3": 5322880, "14 - Devin Dazzle.mp3": 4128896, "03 - What She ...
创建时间: 2020-09-20 17:15:58 大小:66.36 MB 文件数量:17 热度:2 最近下载:2023-12-30 12:11:04
    {"SYMB 001.jpeg": 222223, "A. Aban Don - Crystal.mp3": 19158799, "B2. Dazzle Pulse - Dog Star.mp3": 21025029, "B1. Dazzle Pulse - Discourse.mp3": 20168214}
创建时间: 2020-09-29 12:47:52 大小:57.77 MB 文件数量:4 热度:8 最近下载:2025-10-16 04:51:02
    ... S���q - dazzle.avi": 890519552, "IV Torrent � ...
创建时间: 2020-10-05 22:41:07 大小:849.27 MB 文件数量:7 热度:2 最近下载:2023-12-31 22:02:04
    {"Back.jpg": 98617, "Front.jpg": 115114, "06. H.O.T..mp3": 7896165, "02. Bad Boys.mp3": 14451857, "04. On The Edge.mp3": 12134277, "01. Burnin' Alive.mp3": 10013136, "05. The Day After.mp3": 9693397, "03. Mr Know It All.mp3": 10744566, "07. Nothing To Lose ...
创建时间: 2020-10-21 04:33:04 大小:80.63 MB 文件数量:10 热度:6 最近下载:2023-04-22 02:50:11
    {"razzle dazzle.jpg": 219274, "Razzle Dazzle A Journey into Dance.avi": 862178960, "Torrent downloaded from AhaShare.com.txt": 59}
创建时间: 2020-11-14 08:26:45 大小:822.45 MB 文件数量:3 热度:5 最近下载:2025-09-19 07:37:04
    ... 've Made.flac": 74670576, "B1. Dazzle Ships (Parts II III & VII ... . Orchestral Manoeuvres In The Dark - Dazzle Ships.m3u": 343}
创建时间: 2020-11-20 06:46:36 大小:728.55 MB 文件数量:14 热度:3 最近下载:2021-06-17 16:25:58